This is the latest recevied weather packets stored in our database for station/object DK8HC-WX. If no packets are shown the sender has not sent any weather packets the latest 10 day(s).
| Time | Temp. | Humidity | Pressure | Rain* | Wind** | Luminosity | Snow |
|---|---|---|---|---|---|---|---|
| 1777858307 | 15° C | 100% | 1012.9 hPa | - | - | - | - |
| 1777857707 | 15° C | 100% | 1012.6 hPa | - | - | - | - |
| 1777857107 | 15° C | 100% | 1012.5 hPa | - | - | - | - |
| 1777856507 | 15° C | 100% | 1012.5 hPa | - | - | - | - |
| 1777855907 | 15° C | 100% | 1012.7 hPa | - | - | - | - |
| 1777855307 | 15° C | 100% | 1012.8 hPa | - | - | - | - |
| 1777854707 | 15° C | 100% | 1012.6 hPa | - | - | - | - |
| 1777854107 | 15° C | 100% | 1012.5 hPa | - | - | - | - |
| 1777853507 | 15.56° C | 100% | 1012.5 hPa | - | - | - | - |
| 1777852907 | 15.56° C | 100% | 1012.5 hPa | - | - | - | - |
| 1777852307 | 15.56° C | 100% | 1012.5 hPa | - | - | - | - |
| 1777851707 | 15.56° C | 100% | 1012.5 hPa | - | - | - | - |
| 1777851107 | 15° C | 100% | 1012.4 hPa | - | - | - | - |
| 1777850507 | 15.56° C | 100% | 1012.4 hPa | - | - | - | - |
| 1777849906 | 16.11° C | 100% | 1012.3 hPa | - | - | - | - |
| 1777849306 | 16.11° C | 100% | 1012.4 hPa | - | - | - | - |
| 1777848707 | 16.67° C | 100% | 1012.3 hPa | - | - | - | - |
| 1777848107 | 16.67° C | 100% | 1012.4 hPa | - | - | - | - |
| 1777847507 | 16.67° C | 100% | 1012.5 hPa | - | - | - | - |
| 1777846906 | 16.67° C | 100% | 1012.5 hPa | - | - | - | - |
| 1777846306 | 16.67° C | 100% | 1012.6 hPa | - | - | - | - |
| 1777845706 | 17.22° C | 100% | 1012.6 hPa | - | - | - | - |
| 1777845107 | 17.22° C | 100% | 1012.6 hPa | - | - | - | - |
| 1777844506 | 17.22° C | 100% | 1012.5 hPa | - | - | - | - |
| 1777843906 | 17.78° C | 100% | 1012.6 hPa | - | - | - | - |
* Rain since midnight (hover to see other rain measurements)
** Current wind speed in m/s (hover to see current wind gust speed)